Torna al catalogo

STARLINK-33813

AttivoComunicazioniVLEO
NORAD 63585·PAYLOAD·🇺🇸 United States

Lanciato Apr 14, 2025 da Cape Canaveral Space Force Station

Loading…

Prossimi Passaggi (prossime 24 ore)

TLE

AggiornatoSource: CelesTrak SupGP

Epoca: Sep 15, 2026, 03:15 UTC

1 63585C 25076S   26258.13590278  .00040778  00000+0  14768-2 0  2586
2 63585  43.0018 331.3734 0001472 261.4346 280.1590 15.27561939    13

Traccia STARLINK-33813 in tempo reale con AllMySat

Download on the App Store